Location: Bussy-Saint-Georges
(48.8410°N, 2.7017°E)
Time: 16:22:43
(UTC+00:00)

COSMO-SKYMED 1 - Pass Details

Date: 18 October 2021
Orbit: 621 x 623 km, 97.9° (Epoch: 29 November)

Event Time Altitude Azimuth Distance (km) Brightness Sun altitude
Rises 17:37:12 0° 18° (NNE) 2,917 5.8 -7.9°
Reaches altitude 10° 17:39:28 10° 24° (NNE) 2,005 4.9 -8.3°
Maximum altitude 17:43:42 48° 99° (E) 822 2.8 -9.0°
Drops below altitude 10° 17:47:53 10° 174° (S) 1,988 5.2 -9.7°
Sets 17:50:07 0° 180° (S) 2,889 6.1 -10.0°
